LUCH-5B

Last updated on Fri Jun 19 2026 17:09:31 GMT+0000 (Coordinated Universal Time)

1 38977U 12061A 26169.89176601 -.00000148 00000+0 00000+0 0 9998 2 38977 10.4892 49.8655 0002465 150.1855 11.8366 1.00272094 49620
UTC large
Height (km)
Speed (km/s)
/
Latitude / Longitude
Inclination (degrees)
Orbital Period (minutes)
Azimuth
Elevation
Range (km)
Doppler Factor

Next 0 passes for location: London (51.5072 / 0.1276)

No passes found over London.
LUCH-5B